Zurück zum Katalog

MSG 3 DEB

BAFFLE COVER

LostGEO
NORAD 40872·DEBRIS·🇪🇺 EU

Gestartet Jul 5, 2012 von Guiana Space Centre

Loading…

TLE

VeraltetSource: Space-Track

Epoche: Mar 21, 2025, 06:51 UTC

1 40872U 12035F   25080.28592477 -.00000028  00000-0  00000-0 0  9992
2 40872   8.5285  62.2472 0095423 218.0063 141.3864  1.02741301 43112

Verfolge MSG 3 DEB in Echtzeit mit AllMySat

Download on the App Store